Regional Weather Roundup
Issued by NWS

Home | Current Version | Previous Version | Text Only | Print | Product List | Glossary Off
Versions: 1 2 3 4 5 6 7 8 9 10 11 12 13 14 15 16 17 18 19 20 21 22 23 24 25 26 27 28 29 30 31 32 33 34 35 36 37 38 39 40 41 42 43 44 45 46 47 48 49 50

000
ASUS43 KDTX 210101
RWRMI
MICHIGAN HOURLY REGIONAL WEATHER ROUNDUP
NATIONAL WEATHER SERVICE DETROIT/PONTIAC MI
900 PM EDT FRI APR 20 2018

NOTE: "FAIR" INDICATES FEW OR NO CLOUDS BELOW 12,000 FEET WITH NO
SIGNIFICANT WEATHER AND/OR OBSTRUCTION TO VISIBILITY.

MIZ047>049-052>055-059>063-066>070-074>076-081>083-210200-
SOUTHEAST LOWER MICHIGAN

CITY           SKY/WX    TMP DP  RH WIND       PRES   REMARKS
ADRIAN         FAIR      49  21  33 E6        30.43S
ALMA           FAIR      45  35  69 CALM      30.41S
ANN ARBOR      FAIR      50  19  29 NE5       30.43S
BAD AXE        FAIR      43  17  35 CALM      30.45S
CARO           FAIR      46  20  35 E3        30.42F
DETROIT CITY   FAIR      44  28  53 SE6       30.46R
DETROIT        FAIR      48  21  34 E7        30.45R
FLINT          FAIR      45  23  42 SE7       30.43S
GROSSE ILE     FAIR      42  28  56 CALM      30.45R
HILLSDALE      FAIR      45  27  49 CALM      30.41S
HOWELL         FAIR      46  19  33 E5        30.43R

CITY           SKY/WX    TMP DP  RH WIND       PRES   REMARKS
JACKSON        FAIR      51  17  26 NE3       30.42S
LAMBERTVILLE   FAIR      47  27  46 E3        30.44R
LANSING        FAIR      51  22  31 SE3       30.42F
LAPEER         FAIR      46  18  33 E3        30.44R
MASON          FAIR      51  16  25 E3        30.42S
MONROE         FAIR      44  22  41 E6        30.44S
PONTIAC        FAIR      48  14  25 CALM      30.43R
PORT HOPE        N/A     37  23  56 S5        30.44S WCI  33
PORT HURON     FAIR      34  21  60 CALM      30.47S
TRI CITIES     FAIR      47  31  53 E7        30.43S
MIDLAND        FAIR      42  28  58 E5        30.42S
TROY           FAIR      47  26  42 E6        30.47R
SAGINAW HB     FAIR      46  28  49 E5        30.42S
$$
MIZ043>046-050>051-056>058-064>065-071>073-077>080-210200-
SOUTHWEST LOWER MICHIGAN

CITY           SKY/WX    TMP DP  RH WIND       PRES   REMARKS
BATTLE CREEK   FAIR      50  26  39 N8        30.43R
BENTON HARBOR  FAIR      41  14  33 CALM      30.44S
BIG RAPIDS     FAIR      47   8  20 NW6       30.42R
COLDWATER      FAIR      53  16  23 CALM      30.41S
FREMONT        FAIR      44  10  24 NW3       30.43S
HOLLAND        FAIR      42  23  46 CALM      30.45R
GRAND RAPIDS   FAIR      49  22  34 NW7       30.43R
IONIA          FAIR      51  23  33 W7        30.41S
KALAMAZOO      FAIR      49  22  34 NW8       30.43R
LUDINGTON      FAIR      37  23  56 CALM      30.45R
MARSHALL       FAIR      49  17  27 CALM      30.41S
MOUNT PLEASANT FAIR      49  23  35 CALM      30.41S
MUSKEGON       FAIR      43  12  28 NW3       30.45S
SOUTH HAVEN    FAIR      42  10  26 CALM      30.44S
$$
MIZ016>042-210200-
NORTHERN LOWER MICHIGAN

CITY           SKY/WX    TMP DP  RH WIND       PRES   REMARKS
ALPENA         FAIR      38  18  44 CALM      30.44S
BEAVER ISLAND  FAIR      40  22  49 SW8       30.44R WCI  34
BELLAIRE       FAIR      35  21  55 CALM      30.44S
CADILLAC       FAIR      42  13  30 NW3       30.42R
CHARLEVOIX     FAIR      40  19  41 CALM      30.47R
FRANKFORT      FAIR      40  13  34 CALM      30.44S
GAYLORD        FAIR      42  12  29 CALM      30.42S
GRAYLING       FAIR      36  22  57 CALM      30.41F
HARBOR SPRINGS FAIR      36  22  56 CALM      30.44R
HOUGHTON LAKE  FAIR      44  12  27 NW3       30.42S
MANISTEE       FAIR      40  23  50 CALM      30.44F
OSCODA         FAIR      38  17  42 CALM      30.45S
PELLSTON       FAIR      43  11  27 W5        30.44R
ROGERS CITY    FAIR      35  21  56 CALM      30.43S
TRAVERSE CITY  FAIR      42  24  49 CALM      30.43S
$$
MIZ007>008-015-210200-
EASTERN UPPER MICHIGAN

CITY           SKY/WX    TMP DP  RH WIND       PRES   REMARKS
KINROSS        FAIR      43  14  31 NW3       30.42R
MACKINAC ISLAN FAIR      39  17  41 W8        30.44R WCI  34
NEWBERRY       FAIR      39  18  41 SW8       30.41S WCI  34
S. S. MARIE    FAIR      43  18  36 W6        30.41R
MUNISING         N/A     38  26  62 CALM      30.40F
$$
MIZ004>006-011>014-085-210200-
CENTRAL UPPER MICHIGAN

CITY           SKY/WX    TMP DP  RH WIND       PRES   REMARKS
MANISTIQUE     FAIR      33  32  96 SE3       30.42F
ESCANABA       FAIR      44  20  38 S7        30.41R
MENOMINEE      FAIR      46  16  30 SW7       30.42S
SAWYER-GWINN   CLEAR     48  14  25 NE5       30.39F
$$
MIZ001>003-009>011-084-210200-
WESTERN UPPER MICHIGAN

CITY           SKY/WX    TMP DP  RH WIND       PRES   REMARKS
IRON MOUNTAIN  FAIR      49  16  26 SE5       30.35R
HOUGHTON       FAIR      42  11  28 E6        30.39R
COPPER HARBOR    N/A     41  18  39 SW7       30.39F
IRONWOOD       FAIR      48  16  27 CALM      30.39R
$$

ABBREVIATIONS USED IN REMARKS
   TC - TEMPERATURE IN CELSIUS
  WCI - WIND CHILL INDEX
   HX - HEAT INDEX
  VSB - VISIBILITY




USA.gov is the U.S. government's official web portal to all federal, state and local government web resources and services.